Theta_e
351 350 350 348 349 351 352 349 349 348 349 350 349 351 356 355 353 351 349 345 338 330 327 326 323 322 323 324 323 322 320 318 314 314 310 310 312 312 311 306 307 310 311
350 350 349 349 346 348 352 351 348 348 346 347 344 355 356 356 354 351 349 346 341 332 328 327 326 323 322 322 321 319 316 312 308 308 310 309 310 310 306 308 310 311 314
350 350 350 349 347 344 348 350 349 348 346 344 344 355 357 357 354 352 350 348 344 335 330 328 327 323 321 318 316 313 309 306 309 310 310 311 311 309 309 310 310 310 312
348 349 349 349 348 346 343 344 344 342 342 341 342 353 356 356 355 353 351 349 346 340 332 329 327 323 319 314 312 310 306 308 311 311 311 312 312 310 309 309 310 311 311
349 349 349 348 348 348 347 345 344 343 343 342 343 345 352 355 355 354 352 350 347 341 332 328 326 322 318 314 316 309 305 308 311 312 312 312 312 310 309 309 309 311 312
350 350 350 349 348 348 348 347 346 345 345 346 348 349 347 347 351 356 354 351 348 343 336 328 326 321 319 317 318 316 309 305 312 314 313 312 311 309 309 309 310 310 310
350 350 350 350 349 349 349 349 349 348 349 351 352 351 350 349 349 355 356 351 349 346 337 329 326 323 320 319 318 318 312 306 314 314 313 311 308 308 308 309 310 311 311
350 350 350 350 350 350 351 351 350 351 352 353 353 352 351 352 352 356 357 353 349 347 340 331 327 324 322 320 319 318 307 306 311 312 310 306 308 310 311 311 311 311 310
350 350 351 351 352 352 352 352 351 353 353 353 353 353 353 353 354 355 357 353 348 347 339 332 328 325 324 320 319 316 303 304 308 306 306 309 312 310 311 311 310 309 309
351 351 352 352 352 353 352 352 352 353 353 353 353 354 354 354 353 356 357 353 348 345 338 332 328 326 325 322 319 310 303 304 306 308 309 311 309 309 309 309 310 309 308
351 352 352 352 353 352 352 353 353 354 354 354 354 354 354 354 355 356 356 353 349 345 338 332 328 326 324 322 318 307 304 305 308 309 309 310 309 309 309 308 309 308 308
350 352 352 352 353 353 353 353 354 354 354 354 354 355 355 354 355 356 356 355 352 347 342 336 330 325 324 321 317 308 305 306 308 309 309 310 309 309 309 308 308 308 307
349 351 352 352 353 353 354 354 354 354 354 354 355 355 355 351 352 355 356 351 348 344 342 338 331 324 322 320 316 309 307 307 308 308 309 310 309 309 308 307 308 307 306
350 350 351 352 352 353 354 354 354 354 354 354 355 356 355 349 349 352 352 347 340 334 334 332 327 323 323 321 315 310 306 309 309 309 309 310 309 309 307 307 307 307 306
350 350 349 350 351 352 353 353 354 354 354 355 355 355 356 344 349 352 354 349 345 338 330 325 324 323 321 319 314 311 305 309 310 310 310 310 309 308 307 306 306 306 304
348 349 349 350 350 350 352 354 354 355 355 356 355 356 356 354 353 351 351 352 351 347 329 322 320 320 323 321 317 312 305 311 311 310 311 309 308 307 307 306 305 304 302
347 348 349 350 350 350 352 352 354 354 356 357 358 358 358 357 355 355 349 349 346 342 325 317 318 321 320 320 318 310 306 311 312 312 309 308 308 307 306 305 305 304 302
350 350 350 351 351 352 353 354 354 355 353 353 357 359 360 360 360 355 347 335 322 318 320 314 316 318 318 317 313 310 307 313 311 310 308 308 307 306 306 304 305 303 302
357 354 354 354 354 354 356 357 357 358 359 354 354 355 358 353 352 346 345 335 323 318 317 312 315 314 317 316 312 308 313 312 310 309 308 308 306 306 304 303 305 303 302
359 364 363 360 360 360 358 359 360 359 357 349 353 355 349 341 336 333 331 327 324 319 314 314 314 314 317 316 310 312 314 310 309 308 307 307 306 305 303 303 304 302 301
348 355 362 364 364 363 363 362 361 358 353 348 352 353 356 347 336 334 330 323 320 318 319 315 314 314 315 314 310 314 313 310 309 308 307 306 306 304 303 303 303 301 301
342 347 353 358 363 362 363 362 359 356 352 348 348 346 344 340 335 330 325 322 320 323 324 320 317 316 313 310 312 314 311 310 308 308 307 306 304 303 302 303 302 301 300
337 339 343 347 352 358 361 359 358 354 352 350 345 342 337 333 332 328 326 325 324 326 321 320 317 315 312 309 312 314 311 309 308 307 306 304 304 303 302 303 302 301 300
328 333 336 340 344 349 354 356 355 352 349 345 342 339 333 329 328 326 325 322 324 324 321 315 316 313 309 309 312 313 311 309 307 306 306 303 303 303 302 303 302 301 300
321 322 323 328 335 341 350 354 350 347 344 340 339 334 329 329 325 324 322 321 323 320 318 314 312 311 310 308 313 311 309 307 306 306 305 303 303 303 303 303 301 300 300
315 316 319 321 323 326 337 346 347 343 339 338 334 331 329 327 324 322 320 320 319 319 317 316 312 310 309 308 312 311 308 306 306 306 304 303 303 302 302 302 301 300 300
Wind_Speed
39 42 41 40 38 34 31 31 28 23 20 16 14 15 19 18 16 13 11 11 10 9 8 7 6 5 5 5 4 3 2 2 3 4 7 8 8 10 13 13 12 13 11
41 39 40 41 39 39 37 35 33 30 25 21 18 16 21 21 18 15 13 14 13 12 10 10 7 5 5 4 3 3 2 1 3 5 8 8 9 11 15 11 11 14 8
38 39 38 38 41 42 43 40 37 35 33 28 22 19 22 23 21 19 16 13 14 13 12 12 9 7 7 5 3 2 2 0 1 4 6 7 9 10 11 10 12 15 9
37 38 37 39 42 43 42 42 41 38 34 30 27 24 24 25 24 22 19 16 16 16 15 14 13 11 9 7 6 4 3 3 2 4 6 8 9 11 9 10 16 17 19
35 36 38 41 41 40 40 41 41 40 38 34 31 31 29 26 27 26 24 21 19 18 16 16 13 10 8 7 5 5 5 5 5 4 5 7 10 7 8 9 15 19 19
36 36 39 37 38 40 40 40 39 39 37 34 32 32 33 35 32 29 28 25 22 20 20 17 14 12 12 9 8 7 7 8 8 5 5 7 10 11 11 15 16 14 7
37 37 36 38 39 40 40 39 40 39 37 36 33 33 34 34 32 30 29 30 26 24 22 20 16 15 14 13 12 11 11 11 10 9 9 8 11 13 16 19 16 12 11
36 34 34 35 38 39 37 39 40 37 38 36 35 35 34 35 32 30 30 32 30 26 23 21 20 18 18 16 15 13 11 10 11 11 11 10 13 14 13 13 14 16 15
33 34 35 36 36 37 37 39 40 34 37 36 35 34 35 36 33 31 32 34 32 28 24 24 23 20 17 16 15 14 11 10 10 11 9 9 5 4 6 8 10 10 10
33 35 36 39 38 37 40 39 38 36 36 35 35 35 35 35 34 33 33 36 35 31 28 26 24 21 16 17 17 14 13 11 9 8 7 3 3 6 6 6 9 11 11
38 36 39 41 41 43 42 37 34 33 33 35 36 33 34 36 36 34 33 39 38 35 32 30 27 22 19 18 16 15 12 10 8 7 6 4 5 5 5 8 9 11 9
34 34 36 39 39 35 37 35 34 32 30 32 31 31 27 35 35 33 34 39 40 37 34 33 29 25 23 19 17 14 12 12 10 7 5 5 6 6 7 10 10 8 5
34 36 36 37 37 35 33 32 29 29 28 26 27 26 23 27 29 31 31 40 42 37 33 32 30 27 24 23 20 16 16 14 12 10 7 7 7 7 8 10 9 10 4
33 30 30 31 32 32 32 30 29 28 27 27 24 24 21 22 23 27 34 39 39 36 32 29 29 28 27 25 24 21 19 17 14 12 10 7 8 7 9 9 11 8 6
31 28 29 31 32 29 32 31 33 36 35 31 30 27 24 24 32 34 39 41 43 40 36 29 30 31 27 25 24 22 20 18 17 14 11 9 7 6 9 10 8 3 4
25 24 28 27 25 29 27 28 37 39 35 39 37 31 30 36 35 33 38 44 42 41 39 30 25 28 29 30 31 27 22 20 18 16 12 8 7 6 8 10 5 1 6
28 24 22 24 23 24 26 26 23 29 41 40 35 37 37 34 33 33 36 34 42 40 29 32 33 33 31 27 30 28 21 20 16 14 12 8 6 5 6 7 3 3 7
28 25 25 24 25 23 24 25 24 22 17 23 33 37 36 39 39 36 32 35 31 33 23 22 29 36 37 32 32 27 19 17 16 14 11 8 5 4 6 5 3 3 7
19 22 25 24 25 27 24 25 24 22 22 17 19 21 31 36 35 31 29 32 31 32 29 27 33 33 35 30 28 22 19 20 18 15 12 8 4 4 3 3 5 4 5
15 13 17 21 24 24 27 24 22 21 18 20 22 26 28 29 25 28 31 31 29 28 29 30 31 34 34 31 27 22 20 21 20 16 12 8 5 3 3 3 6 2 5
21 17 12 14 18 20 21 23 22 21 19 24 27 31 34 37 32 35 36 33 31 31 33 35 32 32 31 26 26 21 24 24 20 17 13 8 5 6 4 3 5 1 7
23 21 18 17 19 19 20 22 22 23 20 23 25 26 29 30 25 29 31 30 32 33 32 32 30 31 32 29 23 24 27 26 22 19 16 11 10 9 5 4 5 2 8
24 24 22 19 15 16 16 17 21 23 22 25 26 25 26 29 28 28 30 33 34 33 29 26 27 27 28 28 20 25 27 24 21 20 17 17 13 11 7 6 7 2 5
25 23 22 21 20 18 21 19 25 25 25 26 26 28 28 27 26 27 29 29 32 33 29 27 26 27 28 25 21 26 23 19 20 21 18 18 14 13 8 7 10 2 3
28 27 27 26 23 21 17 20 20 21 25 25 26 26 25 25 25 26 27 29 30 31 30 27 29 27 27 24 23 23 21 21 23 22 20 18 15 15 11 12 11 7 3
28 28 26 27 28 28 24 14 15 18 21 24 23 23 24 25 24 25 26 28 29 30 31 30 29 27 29 30 33 32 27 27 25 21 22 20 18 16 12 13 10 7 4
Wind_Direction
207 214 219 223 226 230 235 237 238 241 244 250 251 253 228 216 216 217 222 217 209 204 202 193 177 175 186 171 169 166 180 233 220 281 287 318 314 320 324 331 335 339 333
209 212 220 224 226 229 234 239 241 244 246 250 260 249 225 221 219 225 227 222 217 214 210 205 196 189 180 202 218 187 159 266 282 283 313 326 329 331 338 347 356 6 29
206 211 217 223 227 231 234 239 244 247 251 253 252 241 228 225 225 230 233 235 228 229 227 218 217 206 202 212 218 215 229 313 327 309 314 325 327 340 347 352 352 6 360
203 209 213 219 227 231 235 240 246 251 252 252 248 245 239 237 236 233 232 236 232 231 233 228 228 220 208 207 200 206 229 228 246 296 309 314 319 328 331 333 342 347 346
199 205 213 221 228 232 236 241 246 250 254 256 254 248 245 244 241 234 233 236 239 232 230 224 231 231 221 210 215 211 228 226 236 279 293 292 306 307 313 316 313 322 332
197 204 213 218 224 232 238 242 246 250 254 255 253 252 250 248 248 242 235 233 240 236 230 223 224 224 223 223 231 241 258 251 241 252 268 276 293 293 302 308 310 322 329
196 204 207 214 221 228 235 240 245 249 253 253 253 253 252 251 248 245 238 234 237 237 232 228 225 226 224 230 234 242 259 257 260 270 267 277 291 304 303 304 310 303 286
197 201 206 209 217 225 229 236 243 246 251 250 253 254 253 252 248 247 242 234 234 238 235 229 228 228 227 232 236 246 256 250 251 257 267 281 290 297 291 297 301 303 305
197 199 204 207 213 219 224 232 239 239 246 247 250 253 253 254 251 246 240 230 228 234 231 228 227 231 232 229 236 249 259 256 242 253 268 292 287 299 305 298 302 306 308
200 202 204 209 212 217 226 230 236 238 242 248 251 250 254 255 254 248 239 230 226 228 225 228 227 229 225 231 240 255 263 255 235 234 237 241 302 324 321 323 309 303 309
202 202 206 211 215 223 229 231 232 234 239 245 248 248 253 254 252 249 239 230 227 228 225 223 226 223 221 229 231 243 260 258 241 269 274 289 314 319 322 330 315 314 290
201 201 206 212 216 219 223 228 229 229 229 235 240 244 241 250 252 251 243 235 234 232 228 229 226 221 224 223 227 239 241 249 250 266 286 299 316 322 327 324 323 331 321
199 203 208 213 217 218 219 221 223 223 224 231 232 237 237 235 246 251 245 229 230 232 234 235 230 219 215 215 222 221 232 237 246 255 277 297 312 311 314 320 331 340 347
203 206 209 211 215 218 220 222 221 223 225 230 230 232 232 229 224 239 236 224 224 229 235 234 227 222 219 219 214 216 228 233 247 256 264 286 297 300 325 331 335 341 312
206 208 208 212 216 217 222 223 224 231 228 226 229 228 220 208 228 238 230 220 220 224 228 223 215 209 212 217 226 228 227 231 238 246 256 263 280 298 322 331 344 337 323
206 207 210 211 213 218 223 229 232 237 238 239 239 235 232 236 249 252 237 237 228 222 211 207 207 212 211 217 223 225 230 228 237 245 239 242 265 289 319 342 336 262 324
212 215 219 217 215 213 216 225 234 244 242 241 241 240 241 240 246 254 245 237 233 223 205 191 193 208 213 218 227 232 233 237 241 229 220 230 249 301 330 338 312 264 323
231 226 221 220 219 220 220 224 231 237 236 238 243 240 238 242 249 247 233 215 205 205 215 204 195 209 211 204 213 228 223 236 224 213 215 219 237 288 321 324 269 267 334
255 241 237 231 230 227 225 225 226 229 230 213 226 233 228 226 229 230 226 209 203 206 207 203 214 214 215 216 220 215 211 211 211 207 209 207 226 275 297 315 233 244 336
349 284 261 251 241 236 231 226 222 220 208 199 208 223 216 209 203 203 208 205 210 206 196 205 209 217 219 219 210 201 208 202 199 203 200 204 218 239 220 286 218 244 343
338 345 318 271 257 254 248 233 226 212 200 203 218 225 226 211 205 209 210 204 206 205 208 206 208 215 220 224 211 201 201 200 200 199 196 193 208 194 203 218 184 88 349
350 339 328 310 278 262 253 246 222 215 206 211 221 224 224 209 210 211 209 204 208 219 221 214 211 215 216 207 213 202 193 199 192 194 190 183 185 182 173 186 171 55 2
1 349 339 324 302 272 247 239 223 217 210 220 226 221 210 210 212 213 216 214 217 219 217 212 208 206 211 207 207 207 200 201 197 195 185 170 174 175 167 172 160 96 9
11 357 347 338 328 300 264 233 228 218 213 218 224 227 218 207 209 214 218 212 219 217 213 206 196 197 198 195 204 204 209 203 197 191 188 179 169 171 167 153 154 146 4
16 12 5 349 348 338 288 249 223 209 209 213 220 221 219 216 213 216 217 218 217 215 207 199 197 193 195 194 193 193 201 204 194 192 186 175 169 172 158 153 132 124 55
18 15 10 4 2 356 349 301 234 214 208 216 218 222 220 215 218 218 216 213 211 207 203 199 195 192 194 195 189 185 197 197 192 191 184 169 165 165 153 151 147 130 93